Time,TemperatureF,DewpointF,PressureIn,WindDirection,WindDirectionDegrees,WindSpeedMPH,WindSpeedGustMPH,Humidity,HourlyPrecipIn,Conditions,Clouds,dailyrainin,SoftwareType,DateUTC
2013-06-20 00:02:00,60.0,-99.9,-100.00,West,280,29.0,41.0,-999,-99.99,,,-99.99,,2013-06-20 07:02:00,
2013-06-20 00:12:00,60.0,-99.9,-100.00,West,280,29.0,41.0,-999,-99.99,,,-99.99,,2013-06-20 07:12:00,
2013-06-20 01:02:00,59.0,-99.9,-100.00,West,280,21.0,28.0,-999,-99.99,,,-99.99,,2013-06-20 08:02:00,
2013-06-20 01:12:00,59.0,-99.9,-100.00,West,280,21.0,28.0,-999,-99.99,,,-99.99,,2013-06-20 08:12:00,
2013-06-20 02:02:00,59.0,-99.9,-100.00,West,276,23.0,32.0,-999,-99.99,,,-99.99,,2013-06-20 09:02:00,
2013-06-20 02:12:00,59.0,-99.9,-100.00,West,276,23.0,32.0,-999,-99.99,,,-99.99,,2013-06-20 09:12:00,
2013-06-20 03:02:00,59.0,-99.9,-100.00,West,267,16.0,20.0,-999,-99.99,,,-99.99,,2013-06-20 10:02:00,
2013-06-20 03:12:00,59.0,-99.9,-100.00,West,267,16.0,20.0,-999,-99.99,,,-99.99,,2013-06-20 10:12:00,
2013-06-20 04:02:00,58.0,-99.9,-100.00,West,281,17.0,27.0,-999,-99.99,,,-99.99,,2013-06-20 11:02:00,
2013-06-20 04:12:00,58.0,-99.9,-100.00,West,281,17.0,27.0,-999,-99.99,,,-99.99,,2013-06-20 11:12:00,
2013-06-20 05:02:00,58.0,-99.9,-100.00,West,269,16.0,22.0,-999,-99.99,,,-99.99,,2013-06-20 12:02:00,
2013-06-20 05:12:00,58.0,-99.9,-100.00,West,269,16.0,22.0,-999,-99.99,,,-99.99,,2013-06-20 12:12:00,
2013-06-20 06:12:00,56.0,-99.9,-100.00,WSW,244,12.0,15.0,-999,-99.99,,,-99.99,,2013-06-20 13:12:00,
2013-06-20 07:02:00,56.0,-99.9,-100.00,WSW,251,14.0,21.0,-999,-99.99,,,-99.99,,2013-06-20 14:02:00,
2013-06-20 07:11:00,56.0,-99.9,-100.00,WSW,251,14.0,21.0,-999,-99.99,,,-99.99,,2013-06-20 14:11:00,
2013-06-20 08:12:00,57.0,-99.9,-100.00,WSW,255,14.0,20.0,-999,-99.99,,,-99.99,,2013-06-20 15:12:00,
2013-06-20 09:02:00,58.0,-99.9,-100.00,WNW,292,10.0,14.0,-999,-99.99,,,-99.99,,2013-06-20 16:02:00,
2013-06-20 09:12:00,58.0,-99.9,-100.00,WNW,292,10.0,14.0,-999,-99.99,,,-99.99,,2013-06-20 16:12:00,
2013-06-20 10:02:00,57.0,-99.9,-100.00,NW,325,9.0,12.0,-999,-99.99,,,-99.99,,2013-06-20 17:02:00,
2013-06-20 10:12:00,57.0,-99.9,-100.00,NW,325,9.0,12.0,-999,-99.99,,,-99.99,,2013-06-20 17:12:00,
2013-06-20 11:01:00,57.0,-99.9,-100.00,North,351,13.0,18.0,-999,-99.99,,,-99.99,,2013-06-20 18:01:00,
2013-06-20 11:12:00,57.0,-99.9,-100.00,North,351,13.0,18.0,-999,-99.99,,,-99.99,,2013-06-20 18:12:00,
2013-06-20 12:02:00,53.0,-99.9,-100.00,North,8,8.0,12.0,-999,-99.99,,,-99.99,,2013-06-20 19:02:00,
2013-06-20 12:11:00,53.0,-99.9,-100.00,North,8,8.0,12.0,-999,-99.99,,,-99.99,,2013-06-20 19:11:00,
2013-06-20 13:02:00,57.0,-99.9,-100.00,SE,138,3.0,8.0,-999,-99.99,,,-99.99,,2013-06-20 20:02:00,
2013-06-20 13:11:00,57.0,-99.9,-100.00,SE,138,3.0,8.0,-999,-99.99,,,-99.99,,2013-06-20 20:11:00,
2013-06-20 14:01:00,59.0,-99.9,-100.00,ENE,77,6.0,8.0,-999,-99.99,,,-99.99,,2013-06-20 21:01:00,